Temperature
12 12 12 12 12 12 13 13 13 13 13 14 14 14 14 14 15 15 15 15 15 15 15 15 15 15 15 14 14 15 15 14 14 14 15 15 15 15 15 15 15 15 15
12 12 12 12 12 12 12 12 13 13 13 13 13 14 14 14 14 14 14 14 14 14 15 15 15 15 14 14 14 14 14 14 14 14 14 14 14 14 14 14 14 14 14
12 12 12 12 12 12 12 12 12 13 13 13 13 13 13 13 14 14 14 14 14 14 14 14 14 14 14 14 14 14 14 14 14 14 14 14 14 14 14 14 14 14 14
12 12 12 12 12 12 12 12 12 12 12 13 13 13 13 13 13 13 14 14 14 14 14 14 14 14 14 14 14 14 14 14 14 14 14 13 13 13 13 13 13 13 13
12 11 11 11 11 11 12 12 12 12 12 12 12 13 13 13 13 13 13 13 13 14 13 14 14 14 14 14 14 14 14 14 13 13 13 13 13 13 13 13 13 13 13
12 11 11 11 11 11 11 11 11 12 12 12 12 12 12 13 13 13 13 13 13 13 13 13 13 14 14 14 14 14 14 13 13 13 13 13 13 13 13 13 13 13 12
12 11 11 11 11 11 11 11 11 11 11 11 11 12 12 12 12 12 12 13 13 13 13 13 13 13 13 13 13 13 13 13 13 13 13 13 13 13 13 13 13 13 12
11 11 11 11 11 11 11 11 11 11 11 11 11 11 11 11 12 12 12 12 12 12 13 13 13 13 13 13 13 13 13 13 13 13 13 13 13 13 13 13 13 12 12
11 11 11 11 11 11 11 11 11 11 11 11 11 11 11 11 11 12 12 12 12 12 13 13 13 13 13 13 13 13 13 13 13 13 13 13 13 13 13 13 12 12 12
11 11 11 11 11 11 10 10 11 11 11 11 11 11 11 11 11 11 12 12 12 12 12 13 13 13 13 13 13 13 13 13 12 12 13 12 12 12 12 12 12 12 12
11 11 11 11 11 11 10 10 10 10 10 10 11 11 11 11 11 11 11 12 12 12 12 12 12 13 13 13 13 13 12 12 12 12 12 12 12 12 12 12 12 12 12
11 11 11 11 11 11 10 10 10 10 10 10 10 10 10 10 11 11 11 11 12 12 12 12 12 12 12 12 12 12 12 12 12 12 12 12 11 11 11 11 11 11 11
12 11 11 11 11 11 11 10 10 10 10 10 10 10 10 10 10 11 11 11 11 11 12 12 12 12 12 12 12 12 12 12 12 12 11 11 11 11 11 11 11 11 11
12 12 12 11 11 11 11 11 11 11 11 10 10 10 10 10 10 10 10 11 11 11 11 11 11 11 11 11 11 11 11 11 11 11 11 11 11 10 10 10 10 10 10
13 12 12 12 11 11 11 11 11 11 11 11 11 11 11 11 10 10 10 11 11 11 11 11 11 11 11 11 11 11 11 11 11 11 10 10 10 10 10 10 10 10 10
13 13 12 12 12 11 11 11 11 11 11 11 11 11 11 11 11 11 11 11 11 11 10 10 10 10 10 10 10 10 10 10 10 10 10 10 10 10 9 9 9 9 9
13 13 12 12 12 12 11 11 11 11 11 11 11 11 11 11 11 11 11 11 10 10 10 10 10 10 10 10 10 10 10 10 10 10 10 10 10 9 9 9 9 9 9
13 13 13 12 12 12 12 12 11 11 11 11 11 11 11 11 11 11 11 11 10 10 10 10 10 10 10 10 10 10 10 10 10 9 9 9 9 9 9 9 9 9 9
13 13 13 12 12 12 12 12 12 12 11 11 11 11 11 11 11 11 11 11 10 10 10 10 10 10 10 10 10 10 10 9 9 9 9 9 9 9 9 9 9 8 8
14 13 13 13 12 12 12 12 12 12 12 12 11 11 11 11 11 11 11 11 10 10 10 10 10 10 10 10 10 10 9 9 9 9 9 9 9 9 9 8 8 8 8
14 13 13 13 13 13 13 13 13 12 12 12 12 12 12 11 11 11 11 11 10 10 10 10 10 11 11 10 10 10 9 9 9 9 9 9 8 8 8 8 8 8 8
14 14 14 13 13 13 13 13 13 13 13 12 12 12 12 12 11 11 11 11 11 11 11 11 11 11 11 11 11 10 9 9 9 9 8 8 8 8 8 8 8 8 8
14 14 14 13 13 13 13 13 13 13 13 13 13 12 12 12 12 11 11 11 11 11 11 11 11 11 11 11 11 11 10 9 9 9 9 8 8 8 8 8 8 8 7
15 14 14 13 13 13 13 13 13 13 13 13 13 13 12 12 12 12 11 11 12 12 12 12 12 12 12 12 11 11 11 10 10 10 9 9 8 8 8 8 7 7 7
14 14 14 13 13 13 13 13 13 13 13 13 13 13 13 12 12 12 12 12 12 12 12 12 12 12 12 12 12 12 11 11 11 10 10 9 9 8 8 8 7 7 7
14 14 14 13 13 13 13 13 13 13 13 13 13 13 13 13 12 12 12 12 12 12 12 12 12 12 12 12 12 12 12 11 11 11 10 10 9 9 8 8 8 7 7
Wind_Speed
10 9 9 9 9 9 9 8 8 6 6 5 5 4 4 3 3 3 2 3 4 4 4 5 6 6 5 5 4 4 3 3 3 1 1 1 1 1 2 2 4 7 8
9 9 9 9 9 9 9 10 9 9 8 7 6 6 6 6 5 4 3 2 2 3 3 4 4 5 5 5 4 4 4 3 3 3 2 1 1 1 1 1 2 5 7
8 8 9 10 10 10 10 10 10 10 9 9 9 8 7 7 6 6 4 3 3 4 4 4 4 5 5 4 4 4 4 3 3 3 2 1 1 1 1 1 2 4 7
7 8 9 9 9 9 9 10 10 10 10 10 9 9 9 8 8 7 5 4 5 5 5 4 4 4 4 4 4 4 4 4 3 3 3 2 2 2 2 2 3 3 4
7 8 8 8 9 9 9 9 9 10 10 9 9 9 9 8 8 8 5 4 4 5 5 5 5 6 6 4 4 4 4 4 4 3 3 2 2 2 2 2 4 4 4
6 7 7 8 8 9 9 9 8 9 9 9 10 9 9 9 11 12 8 4 4 5 5 5 5 7 8 9 9 8 6 4 4 3 3 4 3 2 3 4 4 4 3
6 7 7 8 8 9 9 9 8 9 9 9 9 9 9 11 14 13 11 6 5 4 4 4 5 6 6 6 8 9 9 8 5 4 5 3 3 2 3 4 3 4 4
6 6 7 7 8 8 8 8 8 7 7 8 8 8 8 11 15 14 11 6 6 6 5 5 5 6 5 6 8 8 9 8 6 6 6 5 4 3 3 4 5 6 6
6 6 7 7 7 7 7 7 6 6 6 7 7 8 8 10 15 15 11 5 6 7 7 8 7 7 9 9 8 9 9 7 11 13 12 11 11 11 7 5 5 6 5
6 6 6 6 6 6 6 5 5 5 5 6 7 7 8 9 13 15 12 5 6 6 7 8 12 10 9 8 7 7 7 5 5 6 7 8 8 9 9 5 4 5 4
5 5 5 5 4 5 5 4 4 4 5 5 6 7 8 9 11 15 13 7 5 6 6 6 7 11 12 11 8 6 6 5 5 6 6 6 6 6 6 7 6 5 5
3 3 3 4 4 4 4 5 5 5 5 5 6 6 5 7 9 11 13 12 9 7 6 5 6 10 12 11 8 8 8 6 5 6 6 6 5 5 5 6 10 12 10
2 1 1 2 3 4 5 5 5 5 5 4 5 5 5 5 7 11 11 11 11 7 5 7 6 7 8 7 9 8 6 5 5 6 5 4 4 4 4 5 8 11 13
2 2 1 3 4 5 5 5 5 5 6 5 5 5 4 6 6 7 5 4 6 6 4 5 7 8 6 5 5 6 5 5 5 5 4 4 3 4 4 3 4 5 6
3 4 3 3 3 3 4 3 4 4 3 3 4 5 5 4 5 7 6 5 5 4 3 0 2 3 4 5 4 4 4 4 5 4 4 4 4 4 3 3 3 4 5
1 2 2 2 2 2 3 3 4 3 4 5 5 4 3 4 4 7 8 8 9 9 4 3 4 4 4 4 4 4 4 4 4 4 4 3 3 3 3 2 3 5 5
1 2 2 1 2 2 2 3 3 2 1 1 2 3 3 2 3 5 7 9 8 6 3 3 4 4 3 3 4 4 3 3 3 3 3 3 3 3 3 3 3 4 4
2 2 2 2 1 1 1 1 2 3 3 3 3 3 3 1 2 4 5 5 3 2 2 3 3 3 3 3 3 3 3 3 2 3 3 3 3 3 3 3 4 4 3
4 3 3 2 2 3 2 2 2 2 2 3 4 3 5 4 4 5 4 1 1 2 2 2 3 2 2 3 3 3 3 2 2 2 3 2 2 2 3 4 4 3 2
2 3 3 2 3 4 4 4 3 3 3 3 4 5 4 4 3 3 2 1 0 2 3 3 2 2 2 2 2 1 1 2 1 2 2 1 2 2 3 3 3 2 1
4 6 8 4 4 5 4 4 4 4 4 3 3 5 7 3 3 3 3 3 2 2 3 3 3 2 2 2 1 1 1 2 2 2 2 1 1 1 1 2 2 2 3
5 5 6 6 6 5 5 4 4 4 4 4 4 5 7 4 3 3 4 4 4 3 3 4 4 4 3 2 2 2 2 2 3 2 2 2 2 1 1 1 2 2 2
4 5 5 6 6 6 5 4 4 5 5 5 5 6 6 6 5 5 4 5 5 4 4 3 3 3 5 5 4 1 1 2 3 3 2 2 2 2 2 2 2 2 2
6 6 6 5 5 5 5 6 6 6 6 5 5 5 7 7 6 6 6 5 6 5 6 6 5 6 8 7 6 5 2 1 4 3 2 1 1 1 2 2 2 2 3
7 6 6 6 5 5 6 6 6 6 6 6 5 5 5 6 7 6 6 6 7 6 7 9 9 8 9 11 10 9 7 6 5 3 1 0 2 2 1 2 2 2 3
7 6 6 5 5 5 5 5 5 6 5 5 5 5 5 6 6 6 6 7 7 7 6 8 12 13 12 12 14 14 14 12 9 7 3 1 2 3 3 2 3 3 3
Wind_Direction
5 5 7 11 16 17 14 10 10 11 13 21 31 38 49 55 70 103 129 152 167 178 185 184 182 175 173 173 168 169 174 168 179 179 157 145 151 126 145 186 166 163 170
7 7 10 18 20 18 15 12 14 17 20 26 38 41 48 50 53 64 76 102 143 151 154 150 151 151 148 151 159 165 170 171 162 166 158 145 139 127 141 164 150 148 142
13 12 14 20 20 18 16 13 18 22 24 28 35 41 46 47 45 47 51 66 82 96 109 123 129 137 146 152 156 156 158 152 140 147 150 150 132 133 121 121 121 113 126
19 17 19 20 20 20 19 19 23 22 27 32 35 40 43 45 42 38 39 52 67 72 78 90 104 119 140 154 156 152 147 142 141 142 145 147 143 142 130 127 112 103 106
26 26 21 21 22 20 21 22 24 23 29 31 37 41 39 41 35 27 26 46 65 72 71 82 95 102 101 113 127 134 136 138 143 143 141 128 128 126 141 131 117 104 85
31 30 25 27 25 20 21 23 27 27 29 32 39 44 41 38 31 29 31 33 56 70 71 78 98 101 102 97 96 96 103 121 125 126 124 122 126 129 127 126 127 123 105
34 34 32 34 31 25 22 22 26 30 31 35 38 42 44 35 33 30 26 33 52 67 69 74 92 94 97 101 95 85 71 70 94 117 116 120 123 135 131 128 129 117 114
34 30 37 38 32 28 25 24 26 29 31 33 36 38 41 34 30 28 27 45 55 65 63 61 74 75 77 85 94 82 69 55 68 86 94 83 81 86 106 121 119 102 94
38 30 37 40 33 25 24 26 24 25 29 35 38 37 42 35 28 27 25 44 60 63 63 57 58 65 68 84 97 97 91 78 74 86 93 90 80 74 79 94 105 115 114
42 35 34 40 38 28 21 22 20 27 30 41 44 42 46 43 33 31 27 35 51 60 61 58 54 57 60 82 96 99 101 104 104 94 84 77 72 69 75 87 109 119 120
48 41 35 28 43 42 14 13 25 28 27 43 52 54 52 46 40 38 35 34 40 58 60 56 47 53 62 69 78 90 99 103 98 94 84 71 62 56 55 63 76 103 107
63 45 52 40 27 43 28 16 20 21 30 39 47 49 52 51 42 38 41 44 51 59 60 56 51 57 61 63 66 64 67 78 86 83 78 70 67 60 53 57 69 73 76
111 73 63 89 68 40 31 29 23 21 27 31 37 43 44 46 35 32 42 52 56 64 63 63 60 61 59 59 56 55 63 75 83 89 89 84 79 75 63 61 63 69 62
146 136 82 69 69 64 44 38 41 26 20 21 25 28 40 47 26 10 10 45 61 63 68 67 64 64 62 51 53 58 61 75 91 97 100 95 88 78 75 86 96 91 73
180 164 140 109 95 89 91 58 59 71 60 35 19 19 28 36 14 11 20 22 23 23 357 64 80 73 66 59 55 56 65 70 75 80 95 95 90 84 79 79 89 93 98
139 111 124 140 142 151 142 127 57 82 100 78 64 61 70 61 23 20 22 17 11 5 21 64 75 73 75 78 77 64 60 59 65 79 86 96 106 108 97 77 93 104 110
234 150 145 148 165 198 183 168 164 158 106 56 70 76 86 57 16 6 2 355 346 355 35 71 81 81 77 78 79 81 74 64 57 70 81 85 92 99 101 90 88 97 107
241 140 162 188 229 245 223 214 181 171 183 196 208 209 193 219 307 325 338 342 339 21 61 77 79 75 73 77 81 84 80 65 62 71 71 68 71 87 92 93 91 93 109
222 191 192 193 212 234 227 231 225 206 192 167 157 188 215 229 267 287 308 267 213 123 107 90 91 90 80 78 76 81 90 83 74 77 78 61 62 80 88 98 103 101 104
221 179 179 220 239 233 222 221 223 219 215 192 167 168 176 197 222 221 222 251 162 127 126 126 115 109 109 106 100 86 118 126 107 102 105 75 62 88 109 117 133 149 126
212 192 192 217 247 252 237 225 220 211 217 197 163 154 162 200 214 185 183 196 200 175 160 153 150 152 142 139 168 218 215 173 156 144 148 153 122 96 116 129 132 127 122
221 203 189 204 223 237 242 240 234 222 218 199 168 165 177 204 232 211 194 189 188 175 157 159 175 173 164 175 212 235 227 191 163 164 165 152 144 162 161 140 126 124 135
226 241 223 213 214 218 219 235 247 241 230 217 188 171 181 206 216 215 205 188 175 173 170 169 182 173 180 196 204 200 253 216 165 140 137 157 175 203 198 170 158 159 158
214 230 235 231 223 216 210 216 229 232 223 218 213 193 187 195 202 204 199 185 176 177 180 186 200 202 192 188 192 201 221 155 121 125 138 166 195 214 193 170 179 200 164
208 222 226 226 230 225 218 220 227 233 224 213 212 211 200 192 194 196 191 184 180 185 188 190 199 210 208 195 191 190 186 173 151 128 130 215 244 234 224 200 199 205 191
206 219 225 223 226 231 230 227 230 234 232 222 212 208 204 199 196 194 189 185 185 189 191 195 200 204 209 210 205 197 189 187 187 187 183 283 258 228 212 223 229 220 212
Height
1513 1509 1506 1503 1500 1498 1495 1493 1492 1490 1489 1488 1488 1488 1488 1489 1490 1491 1493 1494 1496 1499 1501 1503 1506 1508 1511 1514 1517 1519 1522 1524 1526 1529 1530 1532 1534 1535 1536 1538 1540 1542 1543
1516 1512 1509 1506 1503 1500 1498 1496 1494 1492 1491 1490 1489 1489 1489 1489 1490 1491 1492 1494 1495 1497 1499 1502 1504 1506 1509 1512 1514 1516 1519 1521 1523 1525 1527 1530 1531 1533 1534 1536 1538 1539 1540
1518 1515 1512 1509 1506 1503 1501 1499 1497 1495 1493 1492 1491 1490 1490 1490 1491 1492 1493 1494 1495 1497 1499 1501 1503 1505 1508 1510 1512 1514 1516 1519 1521 1523 1525 1527 1529 1531 1532 1534 1536 1537 1538
1521 1518 1515 1512 1509 1507 1504 1502 1500 1498 1496 1494 1493 1492 1492 1492 1492 1493 1494 1495 1496 1498 1499 1501 1503 1505 1507 1509 1511 1513 1515 1517 1519 1521 1523 1525 1527 1529 1531 1532 1534 1536 1537
1523 1520 1518 1515 1512 1510 1507 1505 1503 1501 1499 1497 1496 1495 1494 1494 1494 1494 1495 1496 1497 1498 1500 1501 1503 1505 1506 1508 1510 1512 1514 1516 1518 1520 1522 1524 1526 1528 1530 1531 1533 1535 1536
1526 1523 1520 1518 1515 1512 1510 1508 1506 1504 1502 1500 1498 1497 1496 1496 1496 1496 1497 1497 1498 1500 1501 1502 1504 1505 1507 1509 1511 1512 1514 1516 1518 1520 1522 1523 1525 1527 1529 1530 1532 1534 1536
1528 1526 1523 1520 1517 1515 1513 1511 1509 1507 1505 1503 1501 1500 1499 1498 1498 1498 1498 1499 1500 1501 1503 1504 1505 1507 1508 1510 1511 1513 1515 1517 1519 1520 1522 1524 1525 1527 1528 1530 1532 1534 1535
1530 1528 1526 1523 1520 1518 1516 1514 1512 1510 1508 1507 1505 1504 1502 1501 1501 1501 1501 1501 1502 1503 1505 1506 1507 1508 1510 1511 1513 1515 1516 1518 1519 1521 1522 1524 1526 1527 1528 1530 1531 1533 1535
1531 1530 1528 1525 1523 1521 1518 1517 1515 1513 1512 1510 1508 1507 1506 1505 1504 1504 1504 1504 1504 1505 1507 1508 1509 1510 1512 1513 1515 1516 1518 1519 1521 1523 1524 1525 1527 1528 1529 1530 1532 1533 1535
1533 1531 1530 1527 1525 1523 1521 1520 1518 1516 1515 1513 1512 1511 1509 1508 1507 1507 1506 1507 1507 1508 1509 1510 1511 1512 1514 1515 1516 1518 1519 1521 1523 1524 1525 1527 1528 1529 1530 1531 1532 1533 1535
1534 1533 1531 1530 1528 1526 1524 1522 1521 1519 1518 1516 1515 1514 1513 1511 1510 1509 1509 1509 1510 1511 1511 1512 1513 1515 1516 1517 1519 1520 1522 1523 1525 1526 1527 1528 1529 1530 1531 1532 1533 1534 1536
1536 1534 1533 1531 1530 1528 1527 1525 1523 1522 1520 1519 1518 1517 1516 1515 1514 1513 1513 1512 1513 1513 1514 1515 1516 1517 1518 1520 1521 1522 1524 1525 1526 1527 1528 1530 1531 1532 1532 1533 1534 1535 1536
1537 1536 1535 1534 1532 1530 1529 1527 1525 1524 1523 1522 1521 1520 1519 1518 1517 1516 1516 1516 1516 1516 1517 1517 1518 1519 1520 1521 1523 1524 1525 1526 1527 1528 1529 1531 1532 1533 1533 1534 1535 1536 1536
1538 1537 1536 1535 1534 1532 1531 1529 1527 1526 1525 1524 1523 1522 1521 1520 1519 1519 1519 1519 1519 1519 1519 1520 1521 1522 1523 1523 1525 1526 1527 1528 1529 1530 1531 1532 1533 1534 1534 1535 1536 1536 1537
1539 1538 1537 1536 1535 1534 1533 1531 1530 1528 1527 1526 1525 1523 1523 1522 1521 1521 1521 1521 1521 1521 1522 1523 1523 1524 1525 1525 1526 1527 1528 1529 1530 1531 1532 1533 1533 1534 1535 1536 1536 1537 1538
1539 1539 1538 1537 1536 1535 1534 1533 1532 1530 1529 1528 1526 1525 1524 1524 1523 1523 1523 1523 1523 1523 1524 1525 1525 1526 1527 1527 1528 1528 1529 1530 1531 1532 1533 1534 1534 1535 1536 1537 1537 1538 1538
1538 1538 1537 1537 1536 1535 1535 1534 1533 1532 1531 1529 1528 1527 1526 1525 1525 1524 1524 1524 1525 1525 1526 1526 1526 1527 1528 1528 1529 1529 1530 1531 1532 1532 1533 1534 1535 1536 1536 1537 1537 1538 1539
1537 1537 1536 1536 1535 1535 1535 1534 1533 1532 1531 1530 1530 1529 1528 1527 1526 1526 1526 1526 1526 1526 1526 1527 1527 1528 1528 1529 1529 1530 1530 1531 1532 1533 1533 1534 1535 1536 1536 1537 1537 1538 1538
1535 1535 1535 1534 1534 1534 1534 1534 1533 1533 1532 1531 1530 1529 1528 1528 1527 1527 1527 1527 1526 1527 1527 1527 1527 1527 1528 1529 1529 1530 1530 1531 1532 1532 1533 1534 1534 1535 1536 1536 1537 1538 1538
1533 1533 1532 1532 1532 1532 1532 1532 1532 1532 1531 1530 1529 1529 1528 1528 1527 1527 1527 1527 1527 1526 1526 1526 1526 1527 1527 1528 1528 1529 1530 1530 1531 1531 1532 1533 1533 1534 1535 1536 1536 1537 1538
1529 1529 1530 1530 1529 1530 1531 1531 1531 1530 1530 1530 1529 1528 1527 1527 1526 1526 1526 1525 1525 1525 1525 1525 1525 1526 1526 1526 1527 1528 1529 1529 1530 1530 1531 1531 1532 1533 1534 1535 1535 1536 1537
1526 1526 1526 1526 1526 1527 1527 1528 1528 1528 1528 1528 1527 1526 1526 1525 1525 1524 1524 1524 1524 1524 1524 1524 1524 1524 1525 1525 1526 1526 1527 1528 1528 1529 1529 1530 1531 1532 1533 1533 1534 1535 1535
1522 1522 1523 1523 1523 1523 1524 1524 1525 1525 1525 1525 1525 1524 1524 1523 1523 1523 1522 1522 1522 1522 1522 1522 1522 1522 1523 1523 1524 1524 1525 1525 1526 1527 1527 1528 1529 1530 1531 1532 1532 1533 1534
1517 1517 1518 1519 1519 1520 1520 1520 1521 1521 1522 1522 1522 1522 1521 1521 1521 1520 1520 1520 1520 1520 1520 1520 1520 1520 1520 1521 1521 1522 1522 1523 1523 1524 1525 1526 1527 1528 1529 1530 1530 1531 1532
1511 1512 1513 1514 1514 1515 1516 1516 1517 1517 1518 1518 1518 1519 1519 1518 1518 1518 1518 1518 1517 1517 1517 1517 1517 1518 1518 1518 1519 1519 1520 1520 1521 1521 1522 1523 1524 1525 1526 1527 1527 1528 1529
1505 1506 1507 1508 1509 1510 1510 1511 1512 1513 1513 1514 1514 1515 1515 1515 1515 1515 1515 1515 1514 1514 1514 1514 1515 1515 1515 1515 1515 1516 1517 1517 1518 1518 1519 1520 1521 1521 1522 1523 1524 1525 1526